Preview of NWS' New Version of Forecast
This preview is not operational and should not be used for support decisions.

Regional Weather Roundup (RWR)

Issued by National Weather Service (NWS)

                            
000
ASUS43 KTOP 242208
RWRKS 

WEATHER ROUNDUP FOR KANSAS
NATIONAL WEATHER SERVICE GOODLAND KS
500 PM CDT SAT AUG 24 2019

NOTE:  "FAIR" INDICATES FEW OR NO CLOUDS BELOW 12,000 FEET WITH NO
SIGNIFICANT WEATHER AND/OR OBSTRUCTIONS TO VISIBILITY.

KSZ001>006-013>018-027>032-041>047-242300-
NORTHWEST KANSAS
  
CITY           SKY/WX    TMP DP  RH WIND       PRES   REMARKS
GOODLAND       MOSUNNY   77  65  66 SE10      29.98F                  
HAYS           CLOUDY    78  68  71 SE14      29.82F                  
HILL CITY      CLOUDY    76  67  73 SE9       29.95F                  
RUSSELL        CLOUDY    77  68  73 SE10      29.95F                  
$$

KSZ061>065-074>080-084>089-242300-
SOUTHWEST KANSAS
  
CITY           SKY/WX    TMP DP  RH WIND       PRES   REMARKS
DODGE CITY     MOSUNNY   84  64  50 S15G23    29.94S                  
ELKHART        SUNNY     89  64  44 S16       29.90F                  
GARDEN CITY    MOSUNNY   83  63  50 SE17G26   29.93S                  
GREAT BEND     PTSUNNY   80  70  71 E15       29.95F                  
LIBERAL        SUNNY     85  66  53 S20G25    29.92F                  
PRATT          MOSUNNY   84  66  54 SE15      29.94F                  
$$

KSZ066>073-081>083-090>101-242300-
SOUTHEAST KANSAS
  
CITY           SKY/WX    TMP DP  RH WIND       PRES   REMARKS
CHANUTE        CLOUDY    78  69  73 E14G20    29.98F                  
COFFEYVILLE    PTSUNNY   81  73  76 E8        29.93S                  
HUTCHINSON     PTSUNNY   83  69  62 SE8       29.95F                  
MEDICINE LODGE   N/A     84  68  58 SE9G20    29.90F                  
NEWTON         CLOUDY    78  70  76 E8        29.97F                  
PARSONS        PTSUNNY   80  73  79 VRB6      29.97S                  
WICHITA INTL   PTSUNNY   83  71  67 SE9       29.93F                  
WICHITA JABRA  CLOUDY    82  71  69 SE7       29.95S                  
WICHITA MCCONL CLOUDY    82  67  60 E12       29.95                   
WINFIELD       MOSUNNY   84  72  67 SE8       29.94F                  
$$

KSZ007>012-019>026-033>040-048>060-102>105-242300-
NORTHEAST KANSAS
  
CITY           SKY/WX    TMP DP  RH WIND       PRES   REMARKS
CONCORDIA      MOSUNNY   75  69  81 E14G25    29.98F                  
EMPORIA        CLOUDY    77  70  79 E13       29.99S                  
LAWRENCE       CLOUDY    76  64  66 SE7       30.02F                  
MANHATTAN      CLOUDY    74  67  78 E13       30.00F                  
MARYSVILLE     CLOUDY    70  68  94 SE8       30.03F                  
OLATHE IND     CLOUDY    72  63  73 E9G18     30.04S                  
OLATHE EXE     CLOUDY    71  61  70 E10G23    30.04S                  
SALINA         CLOUDY    79  68  69 E12       29.97F                  
TOPEKA BILLARD CLOUDY    73  65  75 E7        30.02S                  
TOPEKA FORBES  CLOUDY    74  66  76 E9        30.02S                  
$$